Volver al catálogo

STARLINK-34367

ActivoComunicacionesVLEO
NORAD 64452·PAYLOAD·🇺🇸 United States

Lanzado Jun 18, 2025 desde Cape Canaveral Space Force Station

Loading…

Próximos Pases (próximas 24 horas)

TLE

ActualizadoSource: CelesTrak SupGP

Época: Sep 15, 2026, 01:46 UTC

1 64452C 25130Q   26258.07409722  .00026853  00000+0  79336-3 0  2588
2 64452  53.1566 286.7225 0001201  90.1669  99.7812 15.34378082    14

Sigue STARLINK-34367 en tiempo real con AllMySat

Download on the App Store